Погода в Тверии

Израиль     32°46′57″N   35°31′34″E
темп.,
°C
ветер,
м/с
пор.,
м/с
влажн.,
%
обл.,
%
осадки,
мм/ч
давл.,
гПа
погр.,
м
10 августа, ср
ср1000:00+26з36700 0.0 1008381
03:00+25зюз22770 0.0 100775
06:00+24юз227811 0.0 100737
09:00+30зюз35470 0.1 10071550
12:00+34з66350 0.0 10061948
15:00+34зсз77330 0.0 10051740
18:00+30зсз77470 0.0 10051124
21:00+27з46630 0.0 1007574
11 августа, чт
чт1100:00+26з35731 0.0 1006342
03:00+26з347055 0.0 1006369
06:00+25з227311 0.0 100747
09:00+29з34557 0.0 10071269
12:00+35зсз66340 0.0 10061756
15:00+35зсз76320 0.0 10061560
18:00+32зсз77370 0.0 10051119
21:00+27з23630 0.0 1007132
12 августа, пт
пт1200:00+25з11750 0.0 100735
03:00+24з11800 0.0 100716
06:00+23з11830 0.0 100712
09:00+28юз02530 0.0 1008916
12:00+35зсз24260 0.0 10061437
15:00+36зсз87210 0.0 10051503
18:00+32зсз77290 0.0 1005863
21:00+26з34570 0.0 1007129
13 августа, сб
сб1300:00+25зюз22670 0.0 100756
03:00+23з22720 0.0 100735
06:00+23з22760 0.0 100727
09:00+29зюз45530 0.0 10071117
12:00+34з66270 0.0 10051566
15:00+35зсз77280 0.0 10041448
18:00+31зсз78480 0.0 10041087
21:00+27з57730 0.0 1005622
14 августа, вс
вс1400:00+26зюз36791 0.0 1006349
03:00+26зюз237551 0.0 1005174
06:00+24з22751 0.0 100531
09:00+30з45510 0.0 10061295
12:00+35з66350 0.0 10051773
15:00+35зсз87340 0.0 10041584
18:00+31зсз77460 0.0 1004991
21:00+26з35700 0.0 1006403